Location: Newark
(40.7636°N, 73.9728°W)
Time: 15:13:47
(UTC+00:00)

ISS - Pass Details

Date: 27 September 2019
Orbit: 411 x 421 km, 51.6° (Epoch: 21 October)

Event Time Altitude Azimuth Distance (km) Brightness Sun altitude
Rises 23:55:11 0° 285° (WNW) 2,342 2.0 -13.8°
Reaches altitude 10° 23:57:56 10° 309° (NW) 1,481 0.0 -14.3°
Maximum altitude 23:59:58 15° 348° (NNW) 1,206 -1.2 -14.6°
Drops below altitude 10° 00:02:01 10° 26° (NNE) 1,483 -1.1 -15.0°
Enters shadow 00:02:37 - 33° (NNE) 1,640 -1.0 -15.1°
